Time,TemperatureF,DewpointF,PressureIn,WindDirection,WindDirectionDegrees,WindSpeedMPH,WindSpeedGustMPH,Humidity,HourlyPrecipIn,Conditions,Clouds,dailyrainin,SolarRadiationWatts/m^2,SoftwareType,DateUTC
2012-12-09 00:22:00,25.0,22.0,-100.00,ENE,62,4.0,5.0,89,0.00,,,0.00,1.000000,,2012-12-09 08:22:00,
2012-12-09 00:32:00,25.0,22.0,-100.00,ENE,62,4.0,5.0,89,0.00,,,0.00,1.000000,,2012-12-09 08:32:00,
2012-12-09 00:42:00,25.0,22.0,-100.00,ENE,62,4.0,5.0,89,0.00,,,0.00,1.000000,,2012-12-09 08:42:00,
2012-12-09 00:52:00,25.0,22.0,-100.00,ENE,62,4.0,5.0,89,0.00,,,0.00,1.000000,,2012-12-09 08:52:00,
2012-12-09 01:22:00,26.0,22.0,-100.00,NE,56,4.0,6.0,86,0.00,,,0.00,1.000000,,2012-12-09 09:22:00,
2012-12-09 01:32:00,26.0,22.0,-100.00,NE,56,4.0,6.0,86,0.00,,,0.00,1.000000,,2012-12-09 09:32:00,
2012-12-09 01:42:00,26.0,22.0,-100.00,NE,56,4.0,6.0,86,0.00,,,0.00,1.000000,,2012-12-09 09:42:00,
2012-12-09 01:52:00,26.0,22.0,-100.00,NE,56,4.0,6.0,86,0.00,,,0.00,1.000000,,2012-12-09 09:52:00,
2012-12-09 02:22:00,26.0,22.0,-100.00,ENE,75,3.0,6.0,86,0.00,,,0.00,1.000000,,2012-12-09 10:22:00,
2012-12-09 02:32:00,26.0,22.0,-100.00,ENE,75,3.0,6.0,86,0.00,,,0.00,1.000000,,2012-12-09 10:32:00,
2012-12-09 02:42:00,26.0,22.0,-100.00,ENE,75,3.0,6.0,86,0.00,,,0.00,1.000000,,2012-12-09 10:42:00,
2012-12-09 02:52:00,26.0,22.0,-100.00,ENE,75,3.0,6.0,86,0.00,,,0.00,1.000000,,2012-12-09 10:52:00,
2012-12-09 03:22:00,28.0,22.0,-100.00,NE,34,1.0,5.0,79,0.00,,,0.00,1.000000,,2012-12-09 11:22:00,
2012-12-09 03:32:00,28.0,22.0,-100.00,NE,34,1.0,5.0,79,0.00,,,0.00,1.000000,,2012-12-09 11:32:00,
2012-12-09 03:42:00,28.0,22.0,-100.00,NE,34,1.0,5.0,79,0.00,,,0.00,1.000000,,2012-12-09 11:42:00,
2012-12-09 03:52:00,28.0,22.0,-100.00,NE,34,1.0,5.0,79,0.00,,,0.00,1.000000,,2012-12-09 11:52:00,
2012-12-09 04:12:00,27.0,23.0,-100.00,East,92,2.0,4.0,84,0.00,,,0.00,1.000000,,2012-12-09 12:12:00,
2012-12-09 04:22:00,27.0,23.0,-100.00,East,92,2.0,4.0,84,0.00,,,0.00,1.000000,,2012-12-09 12:22:00,
2012-12-09 04:32:00,27.0,23.0,-100.00,East,92,2.0,4.0,84,0.00,,,0.00,1.000000,,2012-12-09 12:32:00,
2012-12-09 04:42:00,27.0,23.0,-100.00,East,92,2.0,4.0,84,0.00,,,0.00,1.000000,,2012-12-09 12:42:00,
2012-12-09 04:52:00,27.0,23.0,-100.00,East,92,2.0,4.0,84,0.00,,,0.00,1.000000,,2012-12-09 12:52:00,
2012-12-09 05:22:00,27.0,23.0,-100.00,ENE,60,4.0,6.0,83,0.00,,,-99.99,1.000000,,2012-12-09 13:22:00,
2012-12-09 05:32:00,27.0,23.0,-100.00,ENE,60,4.0,6.0,83,0.00,,,-99.99,1.000000,,2012-12-09 13:32:00,
2012-12-09 05:42:00,27.0,23.0,-100.00,ENE,60,4.0,6.0,83,0.00,,,-99.99,1.000000,,2012-12-09 13:42:00,
2012-12-09 05:52:00,27.0,23.0,-100.00,ENE,60,4.0,6.0,83,0.00,,,-99.99,1.000000,,2012-12-09 13:52:00,
2012-12-09 06:22:00,26.0,22.0,-100.00,NE,51,4.0,6.0,86,0.00,,,0.00,1.000000,,2012-12-09 14:22:00,
2012-12-09 06:33:00,26.0,22.0,-100.00,NE,51,4.0,6.0,86,0.00,,,0.00,1.000000,,2012-12-09 14:33:00,
2012-12-09 06:42:00,26.0,22.0,-100.00,NE,51,4.0,6.0,86,0.00,,,0.00,1.000000,,2012-12-09 14:42:00,
2012-12-09 06:52:00,26.0,22.0,-100.00,NE,51,4.0,6.0,86,0.00,,,0.00,1.000000,,2012-12-09 14:52:00,
2012-12-09 07:22:00,26.0,22.0,-100.00,NE,41,2.0,7.0,86,0.00,,,0.00,1.000000,,2012-12-09 15:22:00,
2012-12-09 07:33:00,26.0,22.0,-100.00,NE,41,2.0,7.0,86,0.00,,,0.00,1.000000,,2012-12-09 15:33:00,
2012-12-09 07:43:00,26.0,22.0,-100.00,NE,41,2.0,7.0,86,0.00,,,0.00,1.000000,,2012-12-09 15:43:00,
2012-12-09 07:52:00,26.0,22.0,-100.00,NE,41,2.0,7.0,86,0.00,,,0.00,1.000000,,2012-12-09 15:52:00,
2012-12-09 08:22:00,26.0,23.0,-100.00,ENE,76,3.0,6.0,88,0.00,,,-99.99,5.000000,,2012-12-09 16:22:00,
2012-12-09 08:32:00,26.0,23.0,-100.00,ENE,76,3.0,6.0,88,0.00,,,-99.99,5.000000,,2012-12-09 16:32:00,
2012-12-09 08:42:00,26.0,23.0,-100.00,ENE,76,3.0,6.0,88,0.00,,,-99.99,5.000000,,2012-12-09 16:42:00,
2012-12-09 08:52:00,26.0,23.0,-100.00,ENE,76,3.0,6.0,88,0.00,,,-99.99,5.000000,,2012-12-09 16:52:00,
2012-12-09 09:22:00,30.0,24.0,-100.00,NE,52,5.0,6.0,77,0.00,,,0.00,64.000000,,2012-12-09 17:22:00,
2012-12-09 09:33:00,30.0,24.0,-100.00,NE,52,5.0,6.0,77,0.00,,,0.00,64.000000,,2012-12-09 17:33:00,
2012-12-09 09:42:00,30.0,24.0,-100.00,NE,52,5.0,6.0,77,0.00,,,0.00,64.000000,,2012-12-09 17:42:00,
2012-12-09 09:52:00,30.0,24.0,-100.00,NE,52,5.0,6.0,77,0.00,,,0.00,64.000000,,2012-12-09 17:52:00,
2012-12-09 10:22:00,36.0,25.0,-100.00,SSW,208,3.0,5.0,65,0.00,,,0.00,57.000000,,2012-12-09 18:22:00,
2012-12-09 10:33:00,36.0,25.0,-100.00,SSW,208,3.0,5.0,65,0.00,,,0.00,57.000000,,2012-12-09 18:33:00,
2012-12-09 10:42:00,36.0,25.0,-100.00,SSW,208,3.0,5.0,65,0.00,,,0.00,57.000000,,2012-12-09 18:42:00,
2012-12-09 10:52:00,36.0,25.0,-100.00,SSW,208,3.0,5.0,65,0.00,,,0.00,57.000000,,2012-12-09 18:52:00,
2012-12-09 11:22:00,39.0,26.0,-100.00,NE,42,2.0,7.0,60,0.00,,,-99.99,257.000000,,2012-12-09 19:22:00,
2012-12-09 11:32:00,39.0,26.0,-100.00,NE,42,2.0,7.0,60,0.00,,,-99.99,257.000000,,2012-12-09 19:32:00,
2012-12-09 11:42:00,39.0,26.0,-100.00,NE,42,2.0,7.0,60,0.00,,,-99.99,257.000000,,2012-12-09 19:42:00,
2012-12-09 11:52:00,39.0,26.0,-100.00,NE,42,2.0,7.0,60,0.00,,,-99.99,257.000000,,2012-12-09 19:52:00,
2012-12-09 12:22:00,41.0,26.0,-100.00,WSW,245,6.0,8.0,55,0.00,,,0.00,420.000000,,2012-12-09 20:22:00,
2012-12-09 12:32:00,41.0,26.0,-100.00,WSW,245,6.0,8.0,55,0.00,,,0.00,420.000000,,2012-12-09 20:32:00,
2012-12-09 12:42:00,41.0,26.0,-100.00,WSW,245,6.0,8.0,55,0.00,,,0.00,420.000000,,2012-12-09 20:42:00,
2012-12-09 12:52:00,41.0,26.0,-100.00,WSW,245,6.0,8.0,55,0.00,,,0.00,420.000000,,2012-12-09 20:52:00,
2012-12-09 13:22:00,43.0,29.0,-100.00,WSW,241,5.0,9.0,57,0.00,,,-99.99,383.000000,,2012-12-09 21:22:00,
2012-12-09 13:33:00,43.0,29.0,-100.00,WSW,241,5.0,9.0,57,0.00,,,-99.99,383.000000,,2012-12-09 21:33:00,
2012-12-09 13:42:00,43.0,29.0,-100.00,WSW,241,5.0,9.0,57,0.00,,,-99.99,383.000000,,2012-12-09 21:42:00,
2012-12-09 13:52:00,43.0,29.0,-100.00,WSW,241,5.0,9.0,57,0.00,,,-99.99,383.000000,,2012-12-09 21:52:00,
2012-12-09 14:22:00,44.0,28.0,-100.00,West,264,4.0,8.0,54,0.00,,,-99.99,380.000000,,2012-12-09 22:22:00,
2012-12-09 14:32:00,44.0,28.0,-100.00,West,264,4.0,8.0,54,0.00,,,-99.99,380.000000,,2012-12-09 22:32:00,
2012-12-09 14:42:00,44.0,28.0,-100.00,West,264,4.0,8.0,54,0.00,,,-99.99,380.000000,,2012-12-09 22:42:00,
2012-12-09 14:52:00,44.0,28.0,-100.00,West,264,4.0,8.0,54,0.00,,,-99.99,380.000000,,2012-12-09 22:52:00,
2012-12-09 15:22:00,46.0,29.0,-100.00,WSW,246,4.0,7.0,51,0.00,,,-99.99,285.000000,,2012-12-09 23:22:00,
2012-12-09 15:32:00,46.0,29.0,-100.00,WSW,246,4.0,7.0,51,0.00,,,-99.99,285.000000,,2012-12-09 23:32:00,
2012-12-09 15:42:00,46.0,29.0,-100.00,WSW,246,4.0,7.0,51,0.00,,,-99.99,285.000000,,2012-12-09 23:42:00,
2012-12-09 15:53:00,46.0,29.0,-100.00,WSW,246,4.0,7.0,51,0.00,,,-99.99,285.000000,,2012-12-09 23:53:00,
2012-12-09 16:22:00,42.0,28.0,-100.00,WSW,243,3.0,7.0,58,0.00,,,-99.99,153.000000,,2012-12-10 00:22:00,
2012-12-09 16:32:00,42.0,28.0,-100.00,WSW,243,3.0,7.0,58,0.00,,,-99.99,153.000000,,2012-12-10 00:32:00,
2012-12-09 16:42:00,42.0,28.0,-100.00,WSW,243,3.0,7.0,58,0.00,,,-99.99,153.000000,,2012-12-10 00:42:00,
2012-12-09 16:52:00,42.0,28.0,-100.00,WSW,243,3.0,7.0,58,0.00,,,-99.99,153.000000,,2012-12-10 00:52:00,
2012-12-09 17:22:00,37.0,27.0,-100.00,NW,312,3.0,5.0,68,0.00,,,-99.99,21.000000,,2012-12-10 01:22:00,
2012-12-09 17:32:00,37.0,27.0,-100.00,NW,312,3.0,5.0,68,0.00,,,-99.99,21.000000,,2012-12-10 01:32:00,
2012-12-09 17:42:00,37.0,27.0,-100.00,NW,312,3.0,5.0,68,0.00,,,-99.99,21.000000,,2012-12-10 01:42:00,
2012-12-09 17:52:00,37.0,27.0,-100.00,NW,312,3.0,5.0,68,0.00,,,-99.99,21.000000,,2012-12-10 01:52:00,
2012-12-09 18:22:00,36.0,27.0,-100.00,WNW,282,4.0,5.0,69,0.00,,,-99.99,1.000000,,2012-12-10 02:22:00,
2012-12-09 18:32:00,36.0,27.0,-100.00,WNW,282,4.0,5.0,69,0.00,,,-99.99,1.000000,,2012-12-10 02:32:00,
2012-12-09 18:42:00,36.0,27.0,-100.00,WNW,282,4.0,5.0,69,0.00,,,-99.99,1.000000,,2012-12-10 02:42:00,
2012-12-09 18:52:00,36.0,27.0,-100.00,WNW,282,4.0,5.0,69,0.00,,,-99.99,1.000000,,2012-12-10 02:52:00,
2012-12-09 19:22:00,35.0,28.0,-100.00,SSE,151,0.0,4.0,74,0.00,,,-99.99,1.000000,,2012-12-10 03:22:00,
2012-12-09 19:32:00,35.0,28.0,-100.00,SSE,151,0.0,4.0,74,0.00,,,-99.99,1.000000,,2012-12-10 03:32:00,
2012-12-09 19:42:00,35.0,28.0,-100.00,SSE,151,0.0,4.0,74,0.00,,,-99.99,1.000000,,2012-12-10 03:42:00,
2012-12-09 19:52:00,35.0,28.0,-100.00,SSE,151,0.0,4.0,74,0.00,,,-99.99,1.000000,,2012-12-10 03:52:00,
2012-12-09 20:22:00,34.0,29.0,-100.00,SE,137,1.0,5.0,81,0.00,,,-99.99,1.000000,,2012-12-10 04:22:00,
2012-12-09 20:32:00,34.0,29.0,-100.00,SE,137,1.0,5.0,81,0.00,,,-99.99,1.000000,,2012-12-10 04:32:00,
2012-12-09 20:42:00,34.0,29.0,-100.00,SE,137,1.0,5.0,81,0.00,,,-99.99,1.000000,,2012-12-10 04:42:00,
2012-12-09 20:52:00,34.0,29.0,-100.00,SE,137,1.0,5.0,81,0.00,,,-99.99,1.000000,,2012-12-10 04:52:00,
2012-12-09 21:22:00,29.0,26.0,-100.00,East,81,4.0,6.0,90,0.00,,,-99.99,1.000000,,2012-12-10 05:22:00,
2012-12-09 21:32:00,29.0,26.0,-100.00,East,81,4.0,6.0,90,0.00,,,-99.99,1.000000,,2012-12-10 05:32:00,
2012-12-09 21:42:00,29.0,26.0,-100.00,East,81,4.0,6.0,90,0.00,,,-99.99,1.000000,,2012-12-10 05:42:00,
2012-12-09 21:52:00,29.0,26.0,-100.00,East,81,4.0,6.0,90,0.00,,,-99.99,1.000000,,2012-12-10 05:52:00,
2012-12-09 22:22:00,32.0,28.0,-100.00,SE,135,2.0,6.0,84,0.00,,,-99.99,1.000000,,2012-12-10 06:22:00,
2012-12-09 22:32:00,32.0,28.0,-100.00,SE,135,2.0,6.0,84,0.00,,,-99.99,1.000000,,2012-12-10 06:32:00,
2012-12-09 22:42:00,32.0,28.0,-100.00,SE,135,2.0,6.0,84,0.00,,,-99.99,1.000000,,2012-12-10 06:42:00,
2012-12-09 22:52:00,32.0,28.0,-100.00,SE,135,2.0,6.0,84,0.00,,,-99.99,1.000000,,2012-12-10 06:52:00,
2012-12-09 23:22:00,29.0,27.0,-100.00,East,93,2.0,4.0,91,0.00,,,0.00,1.000000,,2012-12-10 07:22:00,
2012-12-09 23:32:00,29.0,27.0,-100.00,East,93,2.0,4.0,91,0.00,,,0.00,1.000000,,2012-12-10 07:32:00,
2012-12-09 23:42:00,29.0,27.0,-100.00,East,93,2.0,4.0,91,0.00,,,0.00,1.000000,,2012-12-10 07:42:00,
2012-12-09 23:52:00,29.0,27.0,-100.00,East,93,2.0,4.0,91,0.00,,,0.00,1.000000,,2012-12-10 07:52:00,